Weather History for LTCI - December, 2013

Change the Weather History Date:

Wednesday, December 4, 2013

  Actual Average Record
Temperature  
Mean Temperature 26 °F -  
Max Temperature 37 °F 38 °F 53 °F (2010)
Min Temperature 14 °F 23 °F 14 °F (2013)
Degree Days  
Heating Degree Days 40    
Moisture  
Dew Point 12 °F    
Average Humidity 54    
Maximum Humidity 79    
Minimum Humidity 11    
Precipitation  
Precipitation 0.00 in 0.04 in - ()
Sea Level Pressure  
Sea Level Pressure 30.08 in    
Wind  
Wind Speed 5 mph ()    
Max Wind Speed 10 mph    
Max Gust Speed -    
Visibility 5.2 miles    
Events      
Averages and records for this station are not official NWS values.
T = Trace of Precipitation, MM = Missing Value Source: Averaged Metar Reports

Daily Weather History Graph

Daily Weather History Graph

Search for Another Location

Airport or City:

Trip Planner

Search our weather history database for the weather conditions in past years. The results will help you decide how hot, cold, wet, or windy it might be!

Date:

Astronomy

Dec. 04, 2013 Rise Set
Actual Time 6:07 AM EET 3:45 PM EET
Civil Twilight 5:38 AM EET 4:15 PM EET
Nautical Twilight 5:05 AM EET 4:48 PM EET
Astronomical Twilight 4:33 AM EET 5:20 PM EET
Moon 7:15 AM EET (12/4) 5:30 PM EET (12/4)
Length of Visible Light 10h 36m
Length of Day
9h 37m
Waxing Crescent, 3% of the Moon is Illuminated
Dec 4
Waxing Crescent
Dec 9
First Quarter
Dec 17
Full
Dec 25
Last Quarter
Jan 1
New

Hourly Weather History & Observations

Time (EET) Temp. Windchill Dew Point Humidity Pressure Visibility Wind Dir Wind Speed Gust Speed Precip Events Conditions
12:50 AM 24.8 °F 16.1 °F 12.2 °F 59% 30.09 in 4.3 mi NE 8.1 mph - N/A   Mostly Cloudy
1:50 AM 24.8 °F 14.6 °F 10.4 °F 54% 30.09 in 5.0 mi NE 10.4 mph - N/A   Mostly Cloudy
2:00 AM 24 °F - 10 °F 40%  in 5 mi NE 10.4 mph - -   Haze
2:50 AM 21.2 °F 11.7 °F 10.4 °F 63% 30.12 in 5.0 mi NE 8.1 mph - N/A   Scattered Clouds
4:20 AM 19.4 °F 12.8 °F 10.4 °F 68% 30.12 in - SSE 4.6 mph - N/A   Clear
4:50 AM 15.8 °F - 6.8 °F 68% 30.12 in - Variable 2.3 mph - N/A   Clear
5:00 AM 16 °F - 11 °F 72%  in 6 mi ENE 2.3 mph - -  
5:50 AM 15.8 °F 7.2 °F 10.4 °F 79% 30.12 in - East 5.8 mph - N/A   Clear
6:20 AM 17.6 °F 12.3 °F 10.4 °F 73% 30.12 in 5.0 mi ENE 3.5 mph - N/A   Partly Cloudy
6:26 AM 17.6 °F - 10.4 °F 73% 30.12 in 2.5 mi Variable 2.3 mph - N/A   Partly Cloudy
6:50 AM 17.6 °F - 10.4 °F 73% 30.12 in - Variable 2.3 mph - N/A   Clear
7:50 AM 26.6 °F 22.6 °F 12.2 °F 55% 30.15 in - North 3.5 mph - N/A   Clear
8:00 AM 26 °F - 12 °F 43%  in 6 mi North 3.5 mph - -  
8:50 AM 28.4 °F 21.2 °F 12.2 °F 51% 30.15 in 6.2 mi NE 6.9 mph - N/A   Partly Cloudy
9:50 AM 32.0 °F 25.6 °F 10.4 °F 41% 30.12 in 6.2 mi ENE 6.9 mph - N/A   Partly Cloudy
10:37 AM 17.6 °F 12.3 °F 10.4 °F 73% 30.12 in 5.0 mi ENE 3.5 mph - N/A   Partly Cloudy
10:50 AM 35.6 °F - 3.2 °F 26% 30.09 in 6.2 mi Variable 2.3 mph - N/A   Partly Cloudy
11:00 AM 35 °F - -0 °F 11%  in 6 mi East 2.3 mph - -   Scattered Clouds
11:50 AM 35.6 °F 31.7 °F 1.4 °F 24% 30.06 in 6.2 mi Variable 4.6 mph - N/A   Scattered Clouds
12:50 PM 35.6 °F 29.2 °F 5.0 °F 28% 30.06 in 6.2 mi NE 8.1 mph - N/A   Scattered Clouds
1:50 PM 35.6 °F 29.9 °F 5.0 °F 28% 30.06 in 6.2 mi NNE 6.9 mph - N/A   Scattered Clouds
2:00 PM 35 °F - 3 °F 14%  in 6 mi NNE 6.9 mph - -   Scattered Clouds
2:50 PM 33.8 °F 30.8 °F 5.0 °F 30% 30.06 in 6.2 mi NE 3.5 mph - N/A   Mostly Cloudy
3:50 PM 30.2 °F 23.4 °F 12.2 °F 47% 30.06 in 4.3 mi East 6.9 mph - N/A   Mostly Cloudy
4:50 PM 30.2 °F 24.3 °F 15.8 °F 55% 30.06 in 4.3 mi East 5.8 mph - N/A   Mostly Cloudy
5:00 PM 30 °F - 13 °F 34%  in 4 mi East 5.8 mph - -   Haze
5:50 PM 28.4 °F 23.3 °F 15.8 °F 59% 30.06 in 4.3 mi ENE 4.6 mph - N/A   Mostly Cloudy
6:50 PM 26.6 °F 20.0 °F 17.6 °F 69% 30.04 in 5.0 mi ENE 5.8 mph - N/A   Mostly Cloudy
7:50 PM 26.6 °F 21.2 °F 19.4 °F 74% 30.04 in 5.0 mi ENE 4.6 mph - N/A   Mostly Cloudy
8:00 PM 27 °F - 18 °F 57%  in 5 mi ENE 4.6 mph - -   Haze
8:50 PM 30.2 °F 23.4 °F 19.4 °F 64% 30.04 in 5.0 mi ENE 6.9 mph - N/A   Mostly Cloudy
9:50 PM 28.4 °F - 19.4 °F 69% 30.04 in 5.0 mi Variable 2.3 mph - N/A   Mostly Cloudy
10:50 PM 28.4 °F 23.3 °F 21.2 °F 74% 30.01 in 5.0 mi ENE 4.6 mph - N/A   Mostly Cloudy
11:00 PM 29 °F - 20 °F 57%  in 5 mi ENE 4.6 mph - -   Haze
11:50 PM 28.4 °F 23.3 °F 19.4 °F 69% 30.01 in 5.0 mi ENE 4.6 mph - N/A   Mostly Cloudy